CW2857 Weather Reports


time (UTC)temp
F
wind
direction
speed
knots
gust
knots
rain 1hr
in
rain 24hr
in
rain mn
in
humidity
%
barometer
mb
20260509212019 86 59 1.7 7.8 0.00 0.00 0.00 9 1010.3
20260509211520 85 159 1.7 9.6 0.00 0.00 0.00 10 1010.4
20260509211019 85 90 4.3 9.6 0.00 0.00 0.00 10 1010.5
20260509210519 84 90 1.7 8.7 0.00 0.00 0.00 10 1010.4
20260509210018 83 346 2.6 8.7 0.00 0.00 0.00 10 1010.4
20260509205518 84 261 1.7 4.3 0.00 0.00 0.00 10 1010.4
20260509205016 88 155 1.7 5.2 0.00 0.00 0.00 9 1010.5
20260509204518 87 41 1.7 5.2 0.00 0.00 0.00 9 1010.6
20260509204015 86 342 2.6 7.8 0.00 0.00 0.00 10 1010.6
20260509203514 85 360 1.7 4.3 0.00 0.00 0.00 10 1010.7
20260509203014 84 115 1.7 6.1 0.00 0.00 0.00 10 1010.7
20260509202514 82 78 2.6 6.1 0.00 0.00 0.00 11 1010.7
20260509202015 81 215 2.6 7.0 0.00 0.00 0.00 11 1010.8
20260509201514 84 121 2.6 6.1 0.00 0.00 0.00 10 1011.0
20260509201016 84 90 0.9 3.5 0.00 0.00 0.00 10 1011.1
20260509200514 85 10 0.9 7.8 0.00 0.00 0.00 10 1011.2
20260509200014 85 67 3.5 7.8 0.00 0.00 0.00 10 1011.3
20260509195513 85 61 2.6 5.2 0.00 0.00 0.00 10 1011.3
20260509195013 84 71 1.7 7.8 0.00 0.00 0.00 10 1011.4
20260509194516 84 329 1.7 7.8 0.00 0.00 0.00 11 1011.6
20260509194013 84 5 1.7 7.0 0.00 0.00 0.00 11 1011.6
20260509193516 86 17 1.7 7.0 0.00 0.00 0.00 10 1011.7
20260509193012 85 46 3.5 7.0 0.00 0.00 0.00 10 1011.8
20260509192510 83 36 1.7 7.0 0.00 0.00 0.00 11 1011.8
20260509192020 82 51 2.6 7.8 0.00 0.00 0.00 11 1011.9
20260509191510 83 73 3.5 7.8 0.00 0.00 0.00 11 1011.9
20260509191011 84 299 1.7 7.0 0.00 0.00 0.00 11 1012.1
20260509190508 83 21 3.5 7.8 0.00 0.00 0.00 11 1012.2
20260509190008 83 54 1.7 7.0 0.00 0.00 0.00 11 1012.4
20260509185507 83 53 2.6 7.0 0.00 0.00 0.00 10 1012.5
20260509185006 82 5 1.7 6.1 0.00 0.00 0.00 11 1012.5
20260509184516 81 55 3.5 6.1 0.00 0.00 0.00 11 1012.5
20260509184006 81 159 1.7 6.1 0.00 0.00 0.00 10 1012.5
20260509183505 82 76 0.9 7.0 0.00 0.00 0.00 10 1012.6
20260509183005 82 59 2.6 6.1 0.00 0.00 0.00 11 1012.6
20260509182504 81 27 2.6 7.8 0.00 0.00 0.00 11 1012.6
20260509182001 81 74 3.5 7.8 0.00 0.00 0.00 11 1012.5
20260509181501 81 47 2.6 6.1 0.00 0.00 0.00 11 1012.6
20260509181001 81 125 1.7 5.2 0.00 0.00 0.00 11 1012.7
20260509180600 80 351 0.9 5.2 0.00 0.00 0.00 12 1012.7
20260509180058 79 51 2.6 7.0 0.00 0.00 0.00 11 1012.7
20260509175557 79 103 2.6 7.0 0.00 0.00 0.00 12 1012.8
20260509175055 78 71 0.9 4.3 0.00 0.00 0.00 13 1012.8
20260509174556 76 346 1.7 4.3 0.00 0.00 0.00 14 1012.8
20260509174055 74 355 1.7 3.5 0.00 0.00 0.00 14 1012.8
20260509173554 76 300 0.9 4.3 0.00 0.00 0.00 14 1012.9
20260509173101 74 360 1.7 5.2 0.00 0.00 0.00 15 1012.9
20260509172556 74 349 1.7 7.0 0.00 0.00 0.00 15 1012.9
20260509172053 74 265 1.7 6.1 0.00 0.00 0.00 15 1013.0
20260509171606 75 11 0.9 8.7 0.00 0.00 0.00 14 1013.0
20260509171151 74 340 2.6 8.7 0.00 0.00 0.00 15 1013.0
20260509170551 73 76 1.7 7.0 0.00 0.00 0.00 15 1013.0
20260509170050 71 24 0.9 4.3 0.00 0.00 0.00 16 1013.0
20260509165549 71 232 0.9 7.0 0.00 0.00 0.00 16 1013.0
20260509165049 71 250 2.6 8.7 0.00 0.00 0.00 16 1013.1
20260509164553 72 355 3.5 8.7 0.00 0.00 0.00 16 1013.1
20260509164051 72 355 3.5 7.8 0.00 0.00 0.00 16 1013.1
20260509163551 72 22 3.5 7.0 0.00 0.00 0.00 16 1013.1
20260509163053 71 355 3.5 7.0 0.00 0.00 0.00 16 1013.0
20260509162548 70 342 2.6 7.8 0.00 0.00 0.00 16 1013.0
20260509162047 70 5 3.5 7.8 0.00 0.00 0.00 16 1013.1
20260509161545 70 355 1.7 7.8 0.00 0.00 0.00 17 1013.1
20260509161043 69 39 2.6 7.8 0.00 0.00 0.00 18 1013.1
20260509160544 68 276 2.6 9.6 0.00 0.00 0.00 19 1013.2
20260509160044 69 323 3.5 7.8 0.00 0.00 0.00 18 1013.2
20260509155541 68 355 2.6 8.7 0.00 0.00 0.00 18 1013.2
20260509155040 68 360 3.5 7.0 0.00 0.00 0.00 19 1013.2
20260509154542 67 321 2.6 7.8 0.00 0.00 0.00 21 1013.2
20260509154040 67 274 3.5 7.8 0.00 0.00 0.00 21 1013.2
20260509153541 67 286 2.6 7.8 0.00 0.00 0.00 21 1013.2
20260509153042 66 321 3.5 10.4 0.00 0.00 0.00 22 1013.2
20260509152538 65 317 5.2 10.4 0.00 0.00 0.00 23 1013.2
20260509152038 65 337 5.2 10.4 0.00 0.00 0.00 23 1013.2
20260509151538 65 267 3.5 10.4 0.00 0.00 0.00 25 1013.2
20260509151037 65 287 3.5 10.4 0.00 0.00 0.00 25 1013.1
20260509150537 64 338 4.3 10.4 0.00 0.00 0.00 25 1013.2
20260509150037 63 317 3.5 8.7 0.00 0.00 0.00 26 1013.2
20260509145539 63 319 3.5 8.7 0.00 0.00 0.00 28 1013.3
20260509145037 62 291 3.5 8.7 0.00 0.00 0.00 28 1013.2
20260509144544 62 312 5.2 8.7 0.00 0.00 0.00 28 1013.1
20260509144036 61 288 5.2 9.6 0.00 0.00 0.00 27 1013.1
20260509143536 61 273 5.2 9.6 0.00 0.00 0.00 28 1013.2
20260509143035 61 290 3.5 7.0 0.00 0.00 0.00 27 1013.1
20260509142535 61 340 2.6 7.0 0.00 0.00 0.00 29 1013.1
20260509142035 61 287 2.6 6.1 0.00 0.00 0.00 28 1013.2
20260509141635 62 334 2.6 7.0 0.00 0.00 0.00 28 1013.2
20260509141035 61 330 2.6 7.0 0.00 0.00 0.00 27 1013.1
20260509140535 61 278 1.7 7.0 0.00 0.00 0.00 28 1013.1
20260509140037 61 355 2.6 7.0 0.00 0.00 0.00 27 1013.1
20260509135535 61 267 2.6 7.0 0.00 0.00 0.00 29 1013.0
20260509135034 60 252 2.6 7.0 0.00 0.00 0.00 30 1012.9
20260509134548 60 275 3.5 7.0 0.00 0.00 0.00 31 1012.9
20260509134035 60 276 3.5 7.0 0.00 0.00 0.00 33 1012.9
20260509133534 60 281 3.5 7.0 0.00 0.00 0.00 30 1012.8
20260509133034 59 269 3.5 8.7 0.00 0.00 0.00 29 1012.6
20260509132530 59 275 3.5 8.7 0.00 0.00 0.00 29 1012.5
20260509132028 58 254 4.3 7.0 0.00 0.00 0.00 30 1012.4
20260509131548 58 266 2.6 7.8 0.00 0.00 0.00 30 1012.3
20260509131029 58 276 4.3 7.8 0.00 0.00 0.00 31 1012.3
20260509130531 58 258 3.5 7.0 0.00 0.00 0.00 31 1012.3
20260509130041 58 265 3.5 7.0 0.00 0.00 0.00 32 1012.2
20260509125528 58 281 3.5 7.8 0.00 0.00 0.00 32 1012.2
20260509125025 58 274 4.3 6.1 0.00 0.00 0.00 33 1012.2
20260509124530 58 265 2.6 6.1 0.00 0.00 0.00 33 1012.2
20260509124024 58 284 2.6 3.5 0.00 0.00 0.00 33 1012.2
20260509123523 58 267 1.7 3.5 0.00 0.00 0.00 33 1012.1
20260509123028 59 271 0.9 3.5 0.00 0.00 0.00 33 1012.0
20260509122522 58 256 1.7 3.5 0.00 0.00 0.00 32 1011.9
20260509122021 59 278 1.7 3.5 0.00 0.00 0.00 32 1011.9
20260509121523 58 288 1.7 3.5 0.00 0.00 0.00 33 1011.8
20260509121020 58 271 0.9 3.5 0.00 0.00 0.00 32 1011.7
20260509120523 58 264 1.7 3.5 0.00 0.00 0.00 32 1011.7
20260509120020 59 263 1.7 5.2 0.00 0.00 0.00 32 1011.6
20260509115518 59 267 2.6 6.1 0.00 0.00 0.00 31 1011.6
20260509115021 59 272 3.5 6.1 0.00 0.00 0.00 32 1011.7
20260509114518 59 265 2.6 5.2 0.00 0.00 0.00 32 1011.6
20260509114018 60 252 2.6 6.1 0.00 0.00 0.00 31 1011.6
20260509113519 60 262 3.5 6.1 0.00 0.00 0.00 30 1011.5
20260509113017 60 279 2.6 4.3 0.00 0.00 0.00 31 1011.6
20260509112517 60 271 2.6 7.0 0.00 0.00 0.00 31 1011.5
20260509112016 61 254 4.3 7.8 0.00 0.00 0.00 30 1011.4
20260509111516 61 275 5.2 7.8 0.00 0.00 0.00 30 1011.5
20260509111016 61 278 5.2 7.8 0.00 0.00 0.00 31 1011.4
20260509110516 60 256 6.1 8.7 0.00 0.00 0.00 31 1011.4
20260509110022 61 274 5.2 8.7 0.00 0.00 0.00 31 1011.5
20260509105515 61 275 6.1 8.7 0.00 0.00 0.00 31 1011.5
20260509105017 61 274 5.2 9.6 0.00 0.00 0.00 31 1011.5
20260509104515 61 284 5.2 9.6 0.00 0.00 0.00 31 1011.5
20260509104013 61 263 5.2 7.8 0.00 0.00 0.00 31 1011.4
20260509103512 61 282 4.3 7.8 0.00 0.00 0.00 30 1011.4
20260509103013 61 254 5.2 7.8 0.00 0.00 0.00 30 1011.4
20260509102512 60 273 4.3 7.8 0.00 0.00 0.00 31 1011.4
20260509102012 60 271 3.5 7.8 0.00 0.00 0.00 31 1011.4
20260509101519 58 259 3.5 6.1 0.00 0.00 0.00 33 1011.4
20260509101012 57 251 0.9 3.5 0.00 0.00 0.00 33 1011.3
20260509100510 57 225 1.7 3.5 0.00 0.00 0.00 33 1011.2
20260509100010 57 221 0.9 2.6 0.00 0.00 0.00 34 1011.2
20260509095509 58 224 0.9 2.6 0.00 0.00 0.00 33 1011.1
20260509095007 58 267 0.0 0.9 0.00 0.00 0.00 32 1011.1
20260509094505 59 267 0.0 0.9 0.00 0.00 0.00 31 1011.0
20260509094006 60 267 0.0 0.9 0.00 0.00 0.00 31 1011.0
20260509093503 60 267 0.0 0.0 0.00 0.00 0.00 30 1011.0
20260509093003 61 267 0.0 4.3 0.00 0.00 0.00 30 1010.9
20260509092500 61 267 0.0 4.3 0.00 0.00 0.00 29 1010.8
20260509092001 62 259 0.9 3.5 0.00 0.00 0.00 29 1010.8
20260509091601 62 260 1.7 5.2 0.00 0.00 0.00 29 1010.7
20260509091104 61 264 1.7 5.2 0.00 0.00 0.00 29 1010.8
20260509090600 62 257 1.7 6.1 0.00 0.00 0.00 29 1010.7
20260509090106 62 258 2.6 6.1 0.00 0.00 0.00 28 1010.7
20260509085603 62 255 1.7 7.8 0.00 0.00 0.00 28 1010.7
20260509085100 63 261 2.6 7.8 0.00 0.00 0.00 27 1010.7
20260509084611 63 279 2.6 7.0 0.00 0.00 0.00 28 1010.7
20260509084058 63 269 3.5 7.0 0.00 0.00 0.00 28 1010.7
20260509083600 63 266 3.5 6.1 0.00 0.00 0.00 27 1010.7
20260509083059 63 268 4.3 6.1 0.00 0.00 0.00 26 1010.7
20260509082557 64 252 2.6 5.2 0.00 0.00 0.00 25 1010.7
20260509082057 65 252 2.6 7.8 0.00 0.00 0.00 23 1010.8
20260509081557 65 278 3.5 7.8 0.00 0.00 0.00 23 1010.7
20260509081059 65 285 2.6 6.1 0.00 0.00 0.00 23 1010.7
20260509080557 65 259 1.7 6.1 0.00 0.00 0.00 22 1010.8
20260509080058 65 279 2.6 6.1 0.00 0.00 0.00 22 1010.7
20260509075556 65 275 3.5 7.8 0.00 0.00 0.00 21 1010.7
20260509075055 65 274 6.1 7.8 0.00 0.00 0.00 22 1010.7
20260509074601 63 273 4.3 7.0 0.00 0.00 0.00 23 1010.6
20260509074053 62 256 4.3 6.1 0.00 0.00 0.00 25 1010.6
20260509073552 62 253 2.6 5.2 0.00 0.00 0.00 27 1010.6
20260509073052 63 234 1.7 3.5 0.00 0.00 0.00 28 1010.7
20260509072550 64 257 0.9 6.1 0.00 0.00 0.00 28 1010.7
20260509072048 65 257 1.7 6.1 0.00 0.00 0.00 27 1010.7
20260509071549 65 261 1.7 4.3 0.00 0.00 0.00 28 1010.7
20260509071048 65 259 1.7 5.2 0.00 0.00 0.00 27 1010.7
20260509070546 66 250 2.6 5.2 0.00 0.00 0.00 27 1010.6
20260509070046 66 248 2.6 7.8 0.00 0.00 0.00 27 1010.5
20260509065544 67 246 3.5 9.6 0.00 0.00 0.00 26 1010.5
20260509065043 67 286 4.3 9.6 0.00 0.00 0.00 25 1010.4
20260509064543 68 283 3.5 8.7 0.00 0.00 0.00 24 1010.3
20260509064043 67 277 3.5 8.7 0.00 0.00 0.00 23 1010.3
20260509063542 67 269 2.6 7.0 0.00 0.00 0.00 26 1010.2
20260509063042 68 262 3.5 7.8 0.00 0.00 0.00 27 1010.2
20260509062543 68 269 4.3 7.8 0.00 0.00 0.00 27 1010.2
20260509062043 69 265 5.2 8.7 0.00 0.00 0.00 27 1010.1
20260509061545 69 260 5.2 8.7 0.00 0.00 0.00 26 1010.1
20260509061041 69 252 4.3 7.8 0.00 0.00 0.00 27 1010.0
20260509060542 70 250 5.2 7.8 0.00 0.00 0.00 26 1010.1
20260509060042 70 252 3.5 7.0 0.00 0.00 0.00 26 1010.1
20260509055540 69 237 3.5 7.8 0.00 0.00 0.00 25 1010.1
20260509055040 69 245 3.5 7.8 0.00 0.00 0.00 26 1010.1
20260509054556 68 228 1.7 4.3 0.00 0.00 0.00 25 1010.2
20260509054040 68 246 2.6 5.2 0.00 0.00 0.00 26 1010.2
20260509053540 69 266 1.7 7.0 0.00 0.00 0.00 25 1010.2
20260509053134 70 270 4.3 9.6 0.00 0.00 0.00 24 1010.2
20260509052543 70 278 4.3 9.6 0.00 0.00 0.00 24 1010.2
20260509052039 70 268 3.5 8.7 0.00 0.00 0.00 24 1010.1
20260509051546 71 304 6.1 8.7 0.00 0.00 0.00 24 1010.2
20260509051039 70 286 5.2 7.8 0.00 0.00 0.00 23 1010.0
20260509050539 70 286 3.5 7.0 0.00 0.00 0.00 23 1009.9
20260509050045 70 266 3.5 6.1 0.00 0.00 0.00 23 1009.9
20260509045538 70 286 1.7 5.2 0.00 0.00 0.00 23 1009.8
20260509045037 70 288 2.6 6.1 0.00 0.00 0.00 23 1009.8
20260509044537 71 295 1.7 5.2 0.00 0.00 0.00 22 1009.8
20260509044037 72 288 1.7 7.0 0.00 0.00 0.00 21 1009.7
20260509043538 71 263 2.6 7.0 0.00 0.00 0.00 21 1009.6
20260509043037 71 279 2.6 5.2 0.00 0.00 0.00 21 1009.4
20260509042536 71 210 2.6 5.2 0.00 0.00 0.00 20 1009.4
20260509042036 71 237 1.7 4.3 0.00 0.00 0.00 20 1009.4
20260509041536 72 232 1.7 3.5 0.00 0.00 0.00 19 1009.3
20260509041035 72 219 1.7 4.3 0.00 0.00 0.00 19 1009.3
20260509040536 72 219 2.6 6.1 0.00 0.00 0.00 19 1009.2
20260509040036 73 231 1.7 8.7 0.00 0.00 0.00 18 1009.2
20260509035536 74 200 1.7 11.3 0.00 0.00 0.00 17 1009.1
20260509035036 74 275 7.8 11.3 0.00 0.00 0.00 18 1009.0
20260509034535 73 256 5.2 9.6 0.00 0.00 0.00 18 1009.1
20260509034035 73 218 6.1 9.6 0.00 0.00 0.00 17 1009.0
20260509033536 73 246 2.6 6.1 0.00 0.00 0.00 16 1009.0
20260509033035 73 274 2.6 7.0 0.00 0.00 0.00 16 1008.9
20260509032535 73 291 4.3 7.0 0.00 0.00 0.00 16 1008.8
20260509032034 73 281 3.5 9.6 0.00 0.00 0.00 16 1008.8
20260509031534 73 269 2.6 9.6 0.00 0.00 0.00 16 1008.8
20260509031034 73 261 2.6 7.8 0.00 0.00 0.00 16 1008.7
20260509030534 74 277 2.6 7.8 0.00 0.00 0.00 15 1008.6
20260509030038 74 304 3.5 7.8 0.00 0.00 0.00 15 1008.5
20260509025536 75 288 3.5 8.7 0.00 0.00 0.00 15 1008.5
20260509025033 75 299 3.5 8.7 0.00 0.00 0.00 15 1008.5
20260509024536 76 294 3.5 11.3 0.00 0.00 0.00 15 1008.4
20260509024033 76 339 4.3 11.3 0.00 0.00 0.00 15 1008.3
20260509023534 76 326 5.2 10.4 0.00 0.00 0.00 15 1008.3
20260509023043 76 324 4.3 9.6 0.00 0.00 0.00 15 1008.3
20260509022536 77 333 4.3 12.2 0.00 0.00 0.00 15 1008.2
20260509022034 77 294 6.1 12.2 0.00 0.00 0.00 15 1008.1
20260509021532 78 296 5.2 10.4 0.00 0.00 0.00 15 1008.1
20260509021033 78 313 4.3 10.4 0.00 0.00 0.00 15 1008.1
20260509020531 79 326 5.2 10.4 0.00 0.00 0.00 15 1008.1
20260509020033 79 313 5.2 13.0 0.00 0.00 0.00 15 1008.0
20260509015532 79 310 6.1 13.0 0.00 0.00 0.00 15 1008.0
20260509015031 79 290 6.1 12.2 0.00 0.00 0.00 15 1007.9
20260509014537 80 321 5.2 11.3 0.00 0.00 0.00 15 1007.9
20260509014032 80 5 5.2 10.4 0.00 0.00 0.00 15 1008.0
20260509013532 80 334 6.1 13.0 0.00 0.00 0.00 15 1007.9
20260509013031 80 280 7.0 13.0 0.00 0.00 0.00 15 1007.8
20260509012530 81 360 5.2 12.2 0.00 0.00 0.00 15 1007.9
20260509012030 81 360 7.0 11.3 0.00 0.00 0.00 15 1007.9
20260509011533 81 320 6.1 13.9 0.00 0.00 0.00 15 1007.8
20260509011029 81 325 7.0 15.6 0.00 0.00 0.00 14 1007.9
20260509010528 82 299 6.1 15.6 0.00 0.00 0.00 14 1008.0
20260509010029 82 329 3.5 12.2 0.00 0.00 0.00 13 1007.9
20260509005527 83 348 7.0 12.2 0.00 0.00 0.00 13 1008.0
20260509005027 83 344 4.3 10.4 0.00 0.00 0.00 13 1007.9
20260509004531 83 12 4.3 13.0 0.00 0.00 0.00 12 1008.0
20260509004027 83 5 7.0 13.0 0.00 0.00 0.00 12 1007.9
20260509003526 84 360 6.1 10.4 0.00 0.00 0.00 12 1008.1
20260509003042 84 11 4.3 10.4 0.00 0.00 0.00 12 1008.1
20260509002526 83 26 4.3 11.3 0.00 0.00 0.00 12 1008.1
20260509002026 83 342 4.3 13.9 0.00 0.00 0.00 12 1008.1
20260509001526 82 5 5.2 16.5 0.00 0.00 0.00 12 1008.2
20260509001026 83 304 6.1 10.4 0.00 0.00 0.00 11 1008.1
20260509000529 82 346 6.1 14.8 0.00 0.00 0.00 12 1008.2
20260509000024 84 288 8.7 14.8 0.00 0.00 0.00 11 1008.3
20260508235524 84 314 4.3 11.3 0.00 0.00 0.00 11 1008.3
20260508235024 83 23 7.8 14.8 0.00 0.00 0.00 11 1008.3
20260508234527 83 355 8.7 13.9 0.00 0.00 0.00 11 1008.2
20260508234022 83 263 5.2 15.6 0.00 0.00 0.00 11 1008.3
20260508233522 83 259 7.0 15.6 0.00 0.00 0.00 11 1008.4
20260508233023 83 257 3.5 13.9 0.00 0.00 0.00 10 1008.4
20260508232521 83 271 8.7 12.2 0.00 0.00 0.00 10 1008.5
20260508232021 84 290 4.3 13.9 0.00 0.00 0.00 9 1008.4
20260508231521 83 273 7.0 14.8 0.00 0.00 0.00 9 1008.6
20260508231022 82 278 7.8 17.4 0.00 0.00 0.00 8 1008.5
20260508230520 84 287 8.7 17.4 0.00 0.00 0.00 8 1008.5
20260508230020 86 294 1.7 11.3 0.00 0.00 0.00 9 1008.6
20260508225524 86 47 5.2 11.3 0.00 0.00 0.00 10 1008.8
20260508225017 86 355 1.7 9.6 0.00 0.00 0.00 9 1008.8
20260508224516 85 338 0.9 9.6 0.00 0.00 0.00 10 1008.9
20260508224016 84 344 4.3 11.3 0.00 0.00 0.00 10 1009.1
20260508223519 84 355 7.0 13.0 0.00 0.00 0.00 9 1009.2
20260508223018 84 307 7.0 13.0 0.00 0.00 0.00 10 1009.1
20260508222514 85 317 4.3 13.9 0.00 0.00 0.00 10 1009.1
20260508222015 85 313 8.7 13.9 0.00 0.00 0.00 10 1009.1
20260508221520 85 346 4.3 11.3 0.00 0.00 0.00 11 1009.2
20260508221013 85 330 2.6 11.3 0.00 0.00 0.00 11 1009.2
20260508220516 85 355 5.2 12.2 0.00 0.00 0.00 11 1009.4
20260508220016 84 290 4.3 13.0 0.00 0.00 0.00 11 1009.4
20260508215512 84 342 1.7 13.0 0.00 0.00 0.00 12 1009.4
20260508215011 85 331 6.1 12.2 0.00 0.00 0.00 14 1009.5
20260508214511 85 325 5.2 12.2 0.00 0.00 0.00 11 1009.6
20260508214010 84 283 7.8 13.0 0.00 0.00 0.00 11 1009.6
20260508213510 85 5 7.0 13.0 0.00 0.00 0.00 11 1009.6
20260508213010 86 64 4.3 10.4 0.00 0.00 0.00 11 1009.7
20260508212514 86 319 5.2 11.3 0.00 0.00 0.00 10 1009.7